Year,Month,Day,Hour,Minute,Value (Times are PST for temperature in C)
2017,08,10,00,00,13.20
2017,08,10,00,01,13.20
2017,08,10,00,02,13.20
2017,08,10,00,03,13.30
2017,08,10,00,04,13.30
2017,08,10,00,05,13.30
2017,08,10,00,06,13.30
2017,08,10,00,07,13.30
2017,08,10,00,08,13.30
2017,08,10,00,09,13.30
2017,08,10,00,10,13.30
2017,08,10,00,11,13.30
2017,08,10,00,12,13.30
2017,08,10,00,13,13.30
2017,08,10,00,14,13.30
2017,08,10,00,15,13.30
2017,08,10,00,16,13.30
2017,08,10,00,17,13.30
2017,08,10,00,18,13.30
2017,08,10,00,19,13.30
2017,08,10,00,20,13.30
2017,08,10,00,21,13.30
2017,08,10,00,22,13.30
2017,08,10,00,23,13.30
2017,08,10,00,24,13.30
2017,08,10,00,25,13.30
2017,08,10,00,26,13.30
2017,08,10,00,27,13.30
2017,08,10,00,28,13.30
2017,08,10,00,29,13.30
2017,08,10,00,30,13.30
2017,08,10,00,31,13.30
2017,08,10,00,32,13.30
2017,08,10,00,33,13.30
2017,08,10,00,34,13.30
2017,08,10,00,35,13.30
2017,08,10,00,36,13.30
2017,08,10,00,37,13.20
2017,08,10,00,38,13.20
2017,08,10,00,39,13.20
2017,08,10,00,40,13.20
2017,08,10,00,41,13.20
2017,08,10,00,42,13.20
2017,08,10,00,43,13.20
2017,08,10,00,44,13.20
2017,08,10,00,45,13.20
2017,08,10,00,46,13.20
2017,08,10,00,47,13.20
2017,08,10,00,48,13.20
2017,08,10,00,49,13.20
2017,08,10,00,50,13.20
2017,08,10,00,51,13.20
2017,08,10,00,52,13.20
2017,08,10,00,53,13.20
2017,08,10,00,54,13.20
2017,08,10,00,55,13.20
2017,08,10,00,56,13.20
2017,08,10,00,57,13.10
2017,08,10,00,58,13.10
2017,08,10,00,59,13.10
2017,08,10,01,00,13.10
2017,08,10,01,01,13.10
2017,08,10,01,02,13.10
2017,08,10,01,03,13.00
2017,08,10,01,04,13.00
2017,08,10,01,05,13.00
2017,08,10,01,06,13.00
2017,08,10,01,07,12.90
2017,08,10,01,08,12.90
2017,08,10,01,09,12.90
2017,08,10,01,10,12.90
2017,08,10,01,11,12.80
2017,08,10,01,12,12.80
2017,08,10,01,13,12.80
2017,08,10,01,14,12.80
2017,08,10,01,15,12.80
2017,08,10,01,16,12.80
2017,08,10,01,17,12.80
2017,08,10,01,18,12.80
2017,08,10,01,19,12.80
2017,08,10,01,20,12.80
2017,08,10,01,21,12.70
2017,08,10,01,22,12.70
2017,08,10,01,23,12.70
2017,08,10,01,24,12.70
2017,08,10,01,25,12.70
2017,08,10,01,26,12.70
2017,08,10,01,27,12.70
2017,08,10,01,28,12.70
2017,08,10,01,29,12.70
2017,08,10,01,30,12.70
2017,08,10,01,31,12.70
2017,08,10,01,32,12.60
2017,08,10,01,33,12.60
2017,08,10,01,34,12.60
2017,08,10,01,35,12.60
2017,08,10,01,36,12.60
2017,08,10,01,37,12.60
2017,08,10,01,38,12.60
2017,08,10,01,39,12.60
2017,08,10,01,40,12.60
2017,08,10,01,41,12.60
2017,08,10,01,42,12.60
2017,08,10,01,43,12.60
2017,08,10,01,44,12.60
2017,08,10,01,45,12.60
2017,08,10,01,46,12.60
2017,08,10,01,47,12.60
2017,08,10,01,48,12.60
2017,08,10,01,49,12.60
2017,08,10,01,50,12.50
2017,08,10,01,51,12.50
2017,08,10,01,52,12.50
2017,08,10,01,53,12.50
2017,08,10,01,54,12.50
2017,08,10,01,55,12.50
2017,08,10,01,56,12.50
2017,08,10,01,57,12.50
2017,08,10,01,58,12.50
2017,08,10,01,59,12.50
2017,08,10,02,00,12.50
2017,08,10,02,01,12.50
2017,08,10,02,02,12.50
2017,08,10,02,03,12.50
2017,08,10,02,04,12.40
2017,08,10,02,05,12.40
2017,08,10,02,06,12.40
2017,08,10,02,07,12.40
2017,08,10,02,08,12.40
2017,08,10,02,09,12.40
2017,08,10,02,10,12.40
2017,08,10,02,11,12.40
2017,08,10,02,12,12.40
2017,08,10,02,13,12.40
2017,08,10,02,14,12.40
2017,08,10,02,15,12.50
2017,08,10,02,16,12.50
2017,08,10,02,17,12.50
2017,08,10,02,18,12.50
2017,08,10,02,19,12.50
2017,08,10,02,20,12.50
2017,08,10,02,21,12.50
2017,08,10,02,22,12.50
2017,08,10,02,23,12.50
2017,08,10,02,24,12.50
2017,08,10,02,25,12.50
2017,08,10,02,26,12.50
2017,08,10,02,27,12.50
2017,08,10,02,28,12.50
2017,08,10,02,29,12.50
2017,08,10,02,30,12.50
2017,08,10,02,31,12.50
2017,08,10,02,32,12.60
2017,08,10,02,33,12.60
2017,08,10,02,34,12.60
2017,08,10,02,35,12.60
2017,08,10,02,36,12.60
2017,08,10,02,37,12.60
2017,08,10,02,38,12.60
2017,08,10,02,39,12.60
2017,08,10,02,40,12.60
2017,08,10,02,41,12.70
2017,08,10,02,42,12.70
2017,08,10,02,43,12.70
2017,08,10,02,44,12.80
2017,08,10,02,45,12.80
2017,08,10,02,46,12.80
2017,08,10,02,47,12.80
2017,08,10,02,48,12.80
2017,08,10,02,49,12.80
2017,08,10,02,50,12.80
2017,08,10,02,51,12.80
2017,08,10,02,52,12.80
2017,08,10,02,53,12.80
2017,08,10,02,54,12.90
2017,08,10,02,55,12.90
2017,08,10,02,56,12.90
2017,08,10,02,57,12.90
2017,08,10,02,58,12.90
2017,08,10,02,59,12.90
2017,08,10,03,00,12.90
2017,08,10,03,01,12.90
2017,08,10,03,02,12.90
2017,08,10,03,03,12.90
2017,08,10,03,04,12.90
2017,08,10,03,05,12.90
2017,08,10,03,06,12.90
2017,08,10,03,07,12.90
2017,08,10,03,08,12.90
2017,08,10,03,09,12.90
2017,08,10,03,10,12.90
2017,08,10,03,11,12.90
2017,08,10,03,12,12.90
2017,08,10,03,13,12.90
2017,08,10,03,14,12.90
2017,08,10,03,15,12.90
2017,08,10,03,16,12.80
2017,08,10,03,17,12.80
2017,08,10,03,18,12.80
2017,08,10,03,19,12.80
2017,08,10,03,20,12.80
2017,08,10,03,21,12.80
2017,08,10,03,22,12.80
2017,08,10,03,23,12.80
2017,08,10,03,24,12.80
2017,08,10,03,25,12.80
2017,08,10,03,26,12.80
2017,08,10,03,27,12.80
2017,08,10,03,28,12.80
2017,08,10,03,29,12.80
2017,08,10,03,30,12.80
2017,08,10,03,31,12.80
2017,08,10,03,32,12.70
2017,08,10,03,33,12.70
2017,08,10,03,34,12.70
2017,08,10,03,35,12.70
2017,08,10,03,36,12.70
2017,08,10,03,37,12.70
2017,08,10,03,38,12.70
2017,08,10,03,39,12.70
2017,08,10,03,40,12.70
2017,08,10,03,41,12.70
2017,08,10,03,42,12.70
2017,08,10,03,43,12.70
2017,08,10,03,44,12.70
2017,08,10,03,45,12.70
2017,08,10,03,46,12.70
2017,08,10,03,47,12.70
2017,08,10,03,48,12.70
2017,08,10,03,49,12.70
2017,08,10,03,50,12.70
2017,08,10,03,51,12.70
2017,08,10,03,52,12.70
2017,08,10,03,53,12.70
2017,08,10,03,54,12.70
2017,08,10,03,55,12.70
2017,08,10,03,56,12.70
2017,08,10,03,57,12.60
2017,08,10,03,58,12.60
2017,08,10,03,59,12.60
2017,08,10,04,00,12.60
2017,08,10,04,01,12.60
2017,08,10,04,02,12.60
2017,08,10,04,03,12.60
2017,08,10,04,04,12.60
2017,08,10,04,05,12.60
2017,08,10,04,06,12.60
2017,08,10,04,07,12.60
2017,08,10,04,08,12.60
2017,08,10,04,09,12.60
2017,08,10,04,10,12.60
2017,08,10,04,11,12.50
2017,08,10,04,12,12.50
2017,08,10,04,13,12.50
2017,08,10,04,14,12.50
2017,08,10,04,15,12.50
2017,08,10,04,16,12.50
2017,08,10,04,17,12.50
2017,08,10,04,18,12.50
2017,08,10,04,19,12.40
2017,08,10,04,20,12.40
2017,08,10,04,21,12.40
2017,08,10,04,22,12.40
2017,08,10,04,23,12.40
2017,08,10,04,24,12.40
2017,08,10,04,25,12.30
2017,08,10,04,26,12.30
2017,08,10,04,27,12.30
2017,08,10,04,28,12.30
2017,08,10,04,29,12.30
2017,08,10,04,30,12.30
2017,08,10,04,31,12.30
2017,08,10,04,32,12.30
2017,08,10,04,33,12.30
2017,08,10,04,34,12.30
2017,08,10,04,35,12.30
2017,08,10,04,36,12.20
2017,08,10,04,37,12.20
2017,08,10,04,38,12.20
2017,08,10,04,39,12.20
2017,08,10,04,40,12.20
2017,08,10,04,41,12.20
2017,08,10,04,42,12.10
2017,08,10,04,43,12.10
2017,08,10,04,44,12.10
2017,08,10,04,45,12.10
2017,08,10,04,46,12.00
2017,08,10,04,47,12.00
2017,08,10,04,48,12.00
2017,08,10,04,49,12.00
2017,08,10,04,50,12.00
2017,08,10,04,51,12.00
2017,08,10,04,52,12.00
2017,08,10,04,53,11.90
2017,08,10,04,54,11.90
2017,08,10,04,55,11.90
2017,08,10,04,56,11.90
2017,08,10,04,57,11.90
2017,08,10,04,58,11.90
2017,08,10,04,59,11.90
2017,08,10,05,00,11.90
2017,08,10,05,01,11.90
2017,08,10,05,02,11.90
2017,08,10,05,03,11.90
2017,08,10,05,04,11.90
2017,08,10,05,05,11.90
2017,08,10,05,06,11.90
2017,08,10,05,07,11.90
2017,08,10,05,08,11.90
2017,08,10,05,09,11.90
2017,08,10,05,10,11.90
2017,08,10,05,11,11.90
2017,08,10,05,12,11.90
2017,08,10,05,13,12.00
2017,08,10,05,14,12.00
2017,08,10,05,15,12.00
2017,08,10,05,16,12.00
2017,08,10,05,17,12.00
2017,08,10,05,18,12.00
2017,08,10,05,19,12.00
2017,08,10,05,20,12.00
2017,08,10,05,21,11.90
2017,08,10,05,22,11.90
2017,08,10,05,23,11.90
2017,08,10,05,24,11.90
2017,08,10,05,25,11.90
2017,08,10,05,26,11.90
2017,08,10,05,27,11.90
2017,08,10,05,28,11.90
2017,08,10,05,29,11.80
2017,08,10,05,30,11.80
2017,08,10,05,31,11.80
2017,08,10,05,32,11.80
2017,08,10,05,33,11.80
2017,08,10,05,34,11.80
2017,08,10,05,35,11.80
2017,08,10,05,36,11.80
2017,08,10,05,37,11.80
2017,08,10,05,38,11.80
2017,08,10,05,39,11.80
2017,08,10,05,40,11.80
2017,08,10,05,41,11.80
2017,08,10,05,42,11.80
2017,08,10,05,43,11.80
2017,08,10,05,44,11.80
2017,08,10,05,45,11.80
2017,08,10,05,46,11.80
2017,08,10,05,47,11.70
2017,08,10,05,48,11.70
2017,08,10,05,49,11.70
2017,08,10,05,50,11.70
2017,08,10,05,51,11.70
2017,08,10,05,52,11.70
2017,08,10,05,53,11.70
2017,08,10,05,54,11.70
2017,08,10,05,55,11.70
2017,08,10,05,56,11.70
2017,08,10,05,57,11.70
2017,08,10,05,58,11.70
2017,08,10,05,59,11.70
2017,08,10,06,00,11.70
2017,08,10,06,01,11.80
2017,08,10,06,02,11.80
2017,08,10,06,03,11.80
2017,08,10,06,04,11.80
2017,08,10,06,05,11.80
2017,08,10,06,06,11.80
2017,08,10,06,07,11.80
2017,08,10,06,08,11.80
2017,08,10,06,09,11.80
2017,08,10,06,10,11.80
2017,08,10,06,11,11.80
2017,08,10,06,12,11.80
2017,08,10,06,13,11.80
2017,08,10,06,14,11.80
2017,08,10,06,15,11.70
2017,08,10,06,16,11.70
2017,08,10,06,17,11.70
2017,08,10,06,18,11.70
2017,08,10,06,19,11.70
2017,08,10,06,20,11.70
2017,08,10,06,21,11.70
2017,08,10,06,22,11.70
2017,08,10,06,23,11.60
2017,08,10,06,24,11.60
2017,08,10,06,25,11.60
2017,08,10,06,26,11.60
2017,08,10,06,27,11.60
2017,08,10,06,28,11.60
2017,08,10,06,29,11.70
2017,08,10,06,30,11.70
2017,08,10,06,31,11.70
2017,08,10,06,32,11.70
2017,08,10,06,33,11.70
2017,08,10,06,34,11.70
2017,08,10,06,35,11.70
2017,08,10,06,36,11.60
2017,08,10,06,37,11.60
2017,08,10,06,38,11.60
2017,08,10,06,39,11.60
2017,08,10,06,40,11.70
2017,08,10,06,41,11.70
2017,08,10,06,42,11.70
2017,08,10,06,43,11.70
2017,08,10,06,44,11.70
2017,08,10,06,45,11.70
2017,08,10,06,46,11.70
2017,08,10,06,47,11.70
2017,08,10,06,48,11.70
2017,08,10,06,49,11.70
2017,08,10,06,50,11.70
2017,08,10,06,51,11.70
2017,08,10,06,52,11.70
2017,08,10,06,53,11.80
2017,08,10,06,54,11.80
2017,08,10,06,55,11.80
2017,08,10,06,56,11.80
2017,08,10,06,57,11.80
2017,08,10,06,58,11.80
2017,08,10,06,59,11.80
2017,08,10,07,00,11.90
2017,08,10,07,01,11.90
2017,08,10,07,02,11.90
2017,08,10,07,03,11.90
2017,08,10,07,04,11.90
2017,08,10,07,05,11.90
2017,08,10,07,06,11.90
2017,08,10,07,07,11.90
2017,08,10,07,08,11.90
2017,08,10,07,09,11.90
2017,08,10,07,10,11.90
2017,08,10,07,11,12.00
2017,08,10,07,12,12.00
2017,08,10,07,13,12.00
2017,08,10,07,14,12.00
2017,08,10,07,15,12.00
2017,08,10,07,16,12.00
2017,08,10,07,17,12.10
2017,08,10,07,18,12.10
2017,08,10,07,19,12.10
2017,08,10,07,20,12.20
2017,08,10,07,21,12.20
2017,08,10,07,22,12.20
2017,08,10,07,23,12.30
2017,08,10,07,24,12.30
2017,08,10,07,25,12.30
2017,08,10,07,26,12.30
2017,08,10,07,27,12.30
2017,08,10,07,28,12.30
2017,08,10,07,29,12.40
2017,08,10,07,30,12.40
2017,08,10,07,31,12.40
2017,08,10,07,32,12.50
2017,08,10,07,33,12.50
2017,08,10,07,34,12.60
2017,08,10,07,35,12.60
2017,08,10,07,36,12.60
2017,08,10,07,37,12.70
2017,08,10,07,38,12.80
2017,08,10,07,39,12.80
2017,08,10,07,40,12.80
2017,08,10,07,41,12.80
2017,08,10,07,42,12.90
2017,08,10,07,43,13.00
2017,08,10,07,44,13.00
2017,08,10,07,45,13.10
2017,08,10,07,46,13.10
2017,08,10,07,47,13.20
2017,08,10,07,48,13.20
2017,08,10,07,49,13.20
2017,08,10,07,50,13.30
2017,08,10,07,51,13.30
2017,08,10,07,52,13.40
2017,08,10,07,53,13.40
2017,08,10,07,54,13.50
2017,08,10,07,55,13.50
2017,08,10,07,56,13.50
2017,08,10,07,57,13.50
2017,08,10,07,58,13.60
2017,08,10,07,59,13.60
2017,08,10,08,00,13.60
2017,08,10,08,01,13.70
2017,08,10,08,02,13.70
2017,08,10,08,03,13.70
2017,08,10,08,04,13.70
2017,08,10,08,05,13.70
2017,08,10,08,06,13.70
2017,08,10,08,07,13.70
2017,08,10,08,08,13.70
2017,08,10,08,09,13.70
2017,08,10,08,10,13.70
2017,08,10,08,11,13.60
2017,08,10,08,12,13.60
2017,08,10,08,13,13.60
2017,08,10,08,14,13.60
2017,08,10,08,15,13.60
2017,08,10,08,16,13.50
2017,08,10,08,17,13.50
2017,08,10,08,18,13.50
2017,08,10,08,19,13.50
2017,08,10,08,20,13.50
2017,08,10,08,21,13.50
2017,08,10,08,22,13.50
2017,08,10,08,23,13.40
2017,08,10,08,24,13.40
2017,08,10,08,25,13.40
2017,08,10,08,26,13.50
2017,08,10,08,27,13.50
2017,08,10,08,28,13.60
2017,08,10,08,29,13.60
2017,08,10,08,30,13.70
2017,08,10,08,31,13.70
2017,08,10,08,32,13.80
2017,08,10,08,33,13.90
2017,08,10,08,34,13.90
2017,08,10,08,35,14.00
2017,08,10,08,36,14.00
2017,08,10,08,37,14.10
2017,08,10,08,38,14.10
2017,08,10,08,39,14.20
2017,08,10,08,40,14.20
2017,08,10,08,41,14.20
2017,08,10,08,42,14.30
2017,08,10,08,43,14.20
2017,08,10,08,44,14.30
2017,08,10,08,45,14.30
2017,08,10,08,46,14.30
2017,08,10,08,47,14.30
2017,08,10,08,48,14.30
2017,08,10,08,49,14.40
2017,08,10,08,50,14.40
2017,08,10,08,51,14.40
2017,08,10,08,52,14.50
2017,08,10,08,53,14.50
2017,08,10,08,54,14.60
2017,08,10,08,55,14.60
2017,08,10,08,56,14.60
2017,08,10,08,57,14.60
2017,08,10,08,58,14.70
2017,08,10,08,59,14.70
2017,08,10,09,00,14.80
2017,08,10,09,01,14.80
2017,08,10,09,02,14.80
2017,08,10,09,03,14.80
2017,08,10,09,04,14.90
2017,08,10,09,05,14.90
2017,08,10,09,06,14.90
2017,08,10,09,07,15.00
2017,08,10,09,08,15.00
2017,08,10,09,09,15.00
2017,08,10,09,10,15.10
2017,08,10,09,11,15.10
2017,08,10,09,12,15.20
2017,08,10,09,13,15.20
2017,08,10,09,14,15.30
2017,08,10,09,15,15.30
2017,08,10,09,16,15.30
2017,08,10,09,17,15.30
2017,08,10,09,18,15.40
2017,08,10,09,19,15.50
2017,08,10,09,20,15.50
2017,08,10,09,21,15.60
2017,08,10,09,22,15.70
2017,08,10,09,23,15.70
2017,08,10,09,24,15.70
2017,08,10,09,25,15.70
2017,08,10,09,26,15.70
2017,08,10,09,27,15.70
2017,08,10,09,28,15.70
2017,08,10,09,29,15.80
2017,08,10,09,30,15.80
2017,08,10,09,31,15.80
2017,08,10,09,32,15.90
2017,08,10,09,33,16.00
2017,08,10,09,34,16.10
2017,08,10,09,35,16.20
2017,08,10,09,36,16.30
2017,08,10,09,37,16.40
2017,08,10,09,38,16.40
2017,08,10,09,39,16.50
2017,08,10,09,40,16.60
2017,08,10,09,41,16.70
2017,08,10,09,42,16.70
2017,08,10,09,43,16.70
2017,08,10,09,44,16.80
2017,08,10,09,45,16.80
2017,08,10,09,46,16.90
2017,08,10,09,47,16.90
2017,08,10,09,48,17.00
2017,08,10,09,49,17.00
2017,08,10,09,50,17.10
2017,08,10,09,51,17.20
2017,08,10,09,52,17.30
2017,08,10,09,53,17.30
2017,08,10,09,54,17.30
2017,08,10,09,55,17.30
2017,08,10,09,56,17.30
2017,08,10,09,57,17.30
2017,08,10,09,58,17.40
2017,08,10,09,59,17.50
2017,08,10,10,00,17.50
2017,08,10,10,01,17.60
2017,08,10,10,02,17.60
2017,08,10,10,03,17.60
2017,08,10,10,04,17.70
2017,08,10,10,05,17.70
2017,08,10,10,06,17.70
2017,08,10,10,07,17.70
2017,08,10,10,08,17.70
2017,08,10,10,09,17.60
2017,08,10,10,10,17.60
2017,08,10,10,11,17.60
2017,08,10,10,12,17.60
2017,08,10,10,13,17.60
2017,08,10,10,14,17.60
2017,08,10,10,15,17.60
2017,08,10,10,16,17.60
2017,08,10,10,17,17.60
2017,08,10,10,18,17.70
2017,08,10,10,19,17.70
2017,08,10,10,20,17.70
2017,08,10,10,21,17.70
2017,08,10,10,22,17.80
2017,08,10,10,23,17.80
2017,08,10,10,24,17.90
2017,08,10,10,25,17.90
2017,08,10,10,26,17.90
2017,08,10,10,27,17.90
2017,08,10,10,28,17.90
2017,08,10,10,29,17.90
2017,08,10,10,30,17.90
2017,08,10,10,31,18.00
2017,08,10,10,32,18.00
2017,08,10,10,33,17.90
2017,08,10,10,34,17.90
2017,08,10,10,35,17.90
2017,08,10,10,36,17.90
2017,08,10,10,37,17.90
2017,08,10,10,38,17.90
2017,08,10,10,39,17.90
2017,08,10,10,40,17.90
2017,08,10,10,41,17.90
2017,08,10,10,42,17.90
2017,08,10,10,43,17.90
2017,08,10,10,44,17.90
2017,08,10,10,45,17.90
2017,08,10,10,46,17.90
2017,08,10,10,47,17.90
2017,08,10,10,48,17.80
2017,08,10,10,49,17.80
2017,08,10,10,50,17.70
2017,08,10,10,51,17.70
2017,08,10,10,52,17.60
2017,08,10,10,53,17.60
2017,08,10,10,54,17.60
2017,08,10,10,55,17.50
2017,08,10,10,56,17.60
2017,08,10,10,57,17.60
2017,08,10,10,58,17.60
2017,08,10,10,59,17.60
2017,08,10,11,00,17.50
2017,08,10,11,01,17.50
2017,08,10,11,02,17.50
2017,08,10,11,03,17.60
2017,08,10,11,04,17.60
2017,08,10,11,05,17.60
2017,08,10,11,06,17.70
2017,08,10,11,07,17.70
2017,08,10,11,08,17.70
2017,08,10,11,09,17.70
2017,08,10,11,10,17.70
2017,08,10,11,11,17.70
2017,08,10,11,12,17.70
2017,08,10,11,13,17.80
2017,08,10,11,14,17.80
2017,08,10,11,15,17.80
2017,08,10,11,16,17.90
2017,08,10,11,17,17.90
2017,08,10,11,18,18.00
2017,08,10,11,19,18.10
2017,08,10,11,20,18.20
2017,08,10,11,21,18.20
2017,08,10,11,22,18.20
2017,08,10,11,23,18.20
2017,08,10,11,24,18.20
2017,08,10,11,25,18.20
2017,08,10,11,26,18.20
2017,08,10,11,27,18.20
2017,08,10,11,28,18.00
2017,08,10,11,29,17.90
2017,08,10,11,30,17.80
2017,08,10,11,31,17.70
2017,08,10,11,32,17.50
2017,08,10,11,33,17.50
2017,08,10,11,34,17.40
2017,08,10,11,35,17.40
2017,08,10,11,36,17.30
2017,08,10,11,37,17.30
2017,08,10,11,38,17.30
2017,08,10,11,39,17.30
2017,08,10,11,40,17.30
2017,08,10,11,41,17.40
2017,08,10,11,42,17.40
2017,08,10,11,43,17.40
2017,08,10,11,44,17.50
2017,08,10,11,45,17.50
2017,08,10,11,46,17.60
2017,08,10,11,47,17.60
2017,08,10,11,48,17.70
2017,08,10,11,49,17.70
2017,08,10,11,50,17.70
2017,08,10,11,51,17.70
2017,08,10,11,52,17.70
2017,08,10,11,53,17.70
2017,08,10,11,54,17.70
2017,08,10,11,55,17.70
2017,08,10,11,56,17.60
2017,08,10,11,57,17.60
2017,08,10,11,58,17.60
2017,08,10,11,59,17.60
2017,08,10,12,00,17.60
2017,08,10,12,01,17.60
2017,08,10,12,02,17.60
2017,08,10,12,03,17.60
2017,08,10,12,04,17.60
2017,08,10,12,05,17.70
2017,08,10,12,06,17.70
2017,08,10,12,07,17.70
2017,08,10,12,08,17.80
2017,08,10,12,09,17.80
2017,08,10,12,10,17.90
2017,08,10,12,11,18.10
2017,08,10,12,12,18.20
2017,08,10,12,13,18.30
2017,08,10,12,14,18.40
2017,08,10,12,15,18.40
2017,08,10,12,16,18.50
2017,08,10,12,17,18.50
2017,08,10,12,18,18.60
2017,08,10,12,19,18.70
2017,08,10,12,20,18.70
2017,08,10,12,21,18.80
2017,08,10,12,22,18.90
2017,08,10,12,23,18.90
2017,08,10,12,24,18.90
2017,08,10,12,25,19.00
2017,08,10,12,26,19.10
2017,08,10,12,27,19.10
2017,08,10,12,28,19.10
2017,08,10,12,29,19.10
2017,08,10,12,30,19.10
2017,08,10,12,31,19.10
2017,08,10,12,32,19.10
2017,08,10,12,33,19.10
2017,08,10,12,34,19.10
2017,08,10,12,35,19.20
2017,08,10,12,36,19.20
2017,08,10,12,37,19.30
2017,08,10,12,38,19.30
2017,08,10,12,39,19.40
2017,08,10,12,40,19.50
2017,08,10,12,41,19.50
2017,08,10,12,42,19.60
2017,08,10,12,43,19.60
2017,08,10,12,44,19.60
2017,08,10,12,45,19.70
2017,08,10,12,46,19.70
2017,08,10,12,47,19.80
2017,08,10,12,48,19.90
2017,08,10,12,49,19.90
2017,08,10,12,50,20.00
2017,08,10,12,51,20.10
2017,08,10,12,52,20.10
2017,08,10,12,53,20.20
2017,08,10,12,54,20.20
2017,08,10,12,55,20.30
2017,08,10,12,56,20.40
2017,08,10,12,57,20.50
2017,08,10,12,58,20.50
2017,08,10,12,59,20.50
2017,08,10,13,00,20.60
2017,08,10,13,01,20.60
2017,08,10,13,02,20.70
2017,08,10,13,03,20.70
2017,08,10,13,04,20.80
2017,08,10,13,05,20.80
2017,08,10,13,06,20.90
2017,08,10,13,07,20.90
2017,08,10,13,08,21.00
2017,08,10,13,09,21.00
2017,08,10,13,10,21.10
2017,08,10,13,11,21.10
2017,08,10,13,12,21.10
2017,08,10,13,13,21.10
2017,08,10,13,14,21.10
2017,08,10,13,15,21.10
2017,08,10,13,16,21.10
2017,08,10,13,17,21.10
2017,08,10,13,18,21.10
2017,08,10,13,19,21.10
2017,08,10,13,20,21.20
2017,08,10,13,21,21.30
2017,08,10,13,22,21.30
2017,08,10,13,23,21.30
2017,08,10,13,24,21.30
2017,08,10,13,25,21.40
2017,08,10,13,26,21.50
2017,08,10,13,27,21.60
2017,08,10,13,28,21.60
2017,08,10,13,29,21.60
2017,08,10,13,30,21.70
2017,08,10,13,31,21.80
2017,08,10,13,32,21.90
2017,08,10,13,33,22.00
2017,08,10,13,34,22.00
2017,08,10,13,35,22.10
2017,08,10,13,36,22.10
2017,08,10,13,37,22.20
2017,08,10,13,38,22.20
2017,08,10,13,39,22.20
2017,08,10,13,40,22.20
2017,08,10,13,41,22.20
2017,08,10,13,42,22.20
2017,08,10,13,43,22.20
2017,08,10,13,44,22.30
2017,08,10,13,45,22.40
2017,08,10,13,46,22.50
2017,08,10,13,47,22.60
2017,08,10,13,48,22.70
2017,08,10,13,49,22.80
2017,08,10,13,50,22.90
2017,08,10,13,51,23.00
2017,08,10,13,52,23.10
2017,08,10,13,53,23.10
2017,08,10,13,54,23.20
2017,08,10,13,55,23.20
2017,08,10,13,56,23.30
2017,08,10,13,57,23.30
2017,08,10,13,58,23.30
2017,08,10,13,59,23.30
2017,08,10,14,00,23.30
2017,08,10,14,01,23.30
2017,08,10,14,02,23.30
2017,08,10,14,03,23.20
2017,08,10,14,04,23.20
2017,08,10,14,05,23.20
2017,08,10,14,06,23.20
2017,08,10,14,07,23.20
2017,08,10,14,08,23.20
2017,08,10,14,09,23.20
2017,08,10,14,10,23.20
2017,08,10,14,11,23.30
2017,08,10,14,12,23.30
2017,08,10,14,13,23.40
2017,08,10,14,14,23.60
2017,08,10,14,15,23.70
2017,08,10,14,16,23.70
2017,08,10,14,17,23.70
2017,08,10,14,18,23.70
2017,08,10,14,19,23.80
2017,08,10,14,20,23.80
2017,08,10,14,21,23.90
2017,08,10,14,22,24.00
2017,08,10,14,23,24.10
2017,08,10,14,24,24.10
2017,08,10,14,25,24.20
2017,08,10,14,26,24.20
2017,08,10,14,27,24.20
2017,08,10,14,28,24.30
2017,08,10,14,29,24.30
2017,08,10,14,30,24.30
2017,08,10,14,31,24.40
2017,08,10,14,32,24.40
2017,08,10,14,33,24.40
2017,08,10,14,34,24.40
2017,08,10,14,35,24.40
2017,08,10,14,36,24.40
2017,08,10,14,37,24.30
2017,08,10,14,38,24.30
2017,08,10,14,39,24.20
2017,08,10,14,40,24.20
2017,08,10,14,41,24.10
2017,08,10,14,42,24.10
2017,08,10,14,43,24.10
2017,08,10,14,44,24.00
2017,08,10,14,45,23.90
2017,08,10,14,46,23.90
2017,08,10,14,47,23.90
2017,08,10,14,48,23.90
2017,08,10,14,49,23.90
2017,08,10,14,50,23.80
2017,08,10,14,51,23.80
2017,08,10,14,52,23.80
2017,08,10,14,53,23.80
2017,08,10,14,54,23.70
2017,08,10,14,55,23.70
2017,08,10,14,56,23.70
2017,08,10,14,57,23.70
2017,08,10,14,58,23.60
2017,08,10,14,59,23.70
2017,08,10,15,00,23.70
2017,08,10,15,01,23.70
2017,08,10,15,02,23.70
2017,08,10,15,03,23.80
2017,08,10,15,04,23.90
2017,08,10,15,05,24.00
2017,08,10,15,06,24.10
2017,08,10,15,07,24.10
2017,08,10,15,08,24.20
2017,08,10,15,09,24.30
2017,08,10,15,10,24.40
2017,08,10,15,11,24.40
2017,08,10,15,12,24.40
2017,08,10,15,13,24.50
2017,08,10,15,14,24.50
2017,08,10,15,15,24.50
2017,08,10,15,16,24.50
2017,08,10,15,17,24.50
2017,08,10,15,18,24.50
2017,08,10,15,19,24.60
2017,08,10,15,20,24.60
2017,08,10,15,21,24.70
2017,08,10,15,22,24.70
2017,08,10,15,23,24.80
2017,08,10,15,24,24.80
2017,08,10,15,25,24.80
2017,08,10,15,26,24.90
2017,08,10,15,27,25.00
2017,08,10,15,28,25.00
2017,08,10,15,29,25.20
2017,08,10,15,30,25.30
2017,08,10,15,31,25.40
2017,08,10,15,32,25.40
2017,08,10,15,33,25.50
2017,08,10,15,34,25.50
2017,08,10,15,35,25.50
2017,08,10,15,36,25.60
2017,08,10,15,37,25.60
2017,08,10,15,38,25.60
2017,08,10,15,39,25.70
2017,08,10,15,40,25.80
2017,08,10,15,41,25.80
2017,08,10,15,42,25.90
2017,08,10,15,43,25.90
2017,08,10,15,44,25.90
2017,08,10,15,45,26.00
2017,08,10,15,46,26.00
2017,08,10,15,47,26.00
2017,08,10,15,48,26.10
2017,08,10,15,49,26.20
2017,08,10,15,50,26.30
2017,08,10,15,51,26.40
2017,08,10,15,52,26.40
2017,08,10,15,53,26.60
2017,08,10,15,54,26.60
2017,08,10,15,55,26.60
2017,08,10,15,56,26.70
2017,08,10,15,57,26.70
2017,08,10,15,58,26.80
2017,08,10,15,59,26.80
2017,08,10,16,00,26.90
2017,08,10,16,01,26.90
2017,08,10,16,02,26.90
2017,08,10,16,03,26.80
2017,08,10,16,04,26.80
2017,08,10,16,05,26.80
2017,08,10,16,06,26.80
2017,08,10,16,07,26.80
2017,08,10,16,08,26.80
2017,08,10,16,09,26.80
2017,08,10,16,10,26.80
2017,08,10,16,11,26.80
2017,08,10,16,12,26.80
2017,08,10,16,13,26.80
2017,08,10,16,14,26.80
2017,08,10,16,15,26.80
2017,08,10,16,16,26.80
2017,08,10,16,17,26.90
2017,08,10,16,18,26.90
2017,08,10,16,19,26.90
2017,08,10,16,20,27.00
2017,08,10,16,21,27.10
2017,08,10,16,22,27.10
2017,08,10,16,23,27.10
2017,08,10,16,24,27.10
2017,08,10,16,25,27.10
2017,08,10,16,26,27.00
2017,08,10,16,27,26.90
2017,08,10,16,28,27.00
2017,08,10,16,29,27.10
2017,08,10,16,30,27.10
2017,08,10,16,31,27.10
2017,08,10,16,32,27.20
2017,08,10,16,33,27.20
2017,08,10,16,34,27.30
2017,08,10,16,35,27.30
2017,08,10,16,36,27.30
2017,08,10,16,37,27.40
2017,08,10,16,38,27.40
2017,08,10,16,39,27.50
2017,08,10,16,40,27.60
2017,08,10,16,41,27.70
2017,08,10,16,42,27.80
2017,08,10,16,43,27.90
2017,08,10,16,44,28.00
2017,08,10,16,45,28.00
2017,08,10,16,46,28.00
2017,08,10,16,47,27.90
2017,08,10,16,48,27.90
2017,08,10,16,49,27.90
2017,08,10,16,50,28.00
2017,08,10,16,51,28.00
2017,08,10,16,52,28.00
2017,08,10,16,53,28.00
2017,08,10,16,54,28.00
2017,08,10,16,55,27.90
2017,08,10,16,56,27.90
2017,08,10,16,57,27.80
2017,08,10,16,58,27.70
2017,08,10,16,59,27.70
2017,08,10,17,00,27.70
2017,08,10,17,01,27.70
2017,08,10,17,02,27.70
2017,08,10,17,03,27.70
2017,08,10,17,04,27.60
2017,08,10,17,05,27.60
2017,08,10,17,06,27.50
2017,08,10,17,07,27.40
2017,08,10,17,08,27.30
2017,08,10,17,09,27.30
2017,08,10,17,10,27.30
2017,08,10,17,11,27.30
2017,08,10,17,12,27.30
2017,08,10,17,13,27.30
2017,08,10,17,14,27.30
2017,08,10,17,15,27.30
2017,08,10,17,16,27.20
2017,08,10,17,17,27.10
2017,08,10,17,18,27.00
2017,08,10,17,19,26.90